Showing default

AETHER-1, 58281

Orbit data source: Space-Track

AETHER-1, 58281 is a payload satellite owned by Kepler Comms (CA) in SSO that was launched on Sat, 11 Nov 2023 UTC via an FALCON 9 launch vehicle from the Air Force Western Test Range (AFWTR). Payloads include a variety of satellites, spacecraft, and rockets equipped with specific instruments for various scientific and technological missions. These include communications satellites like Starlink; space stations such as the ISS; scientific satellites like the Hubble; Earth observation satellites from companies like Planet Labs, Umbra, and HawkEye 360; GPS; miniature CubeSats for education and research; and military/defense satellites.

Loading next visibility...
AETHER-1 details
Identifier
58281, 2023-174AB
Orbit
SSO
Last TLE update18 hours ago
Origin
Flag of CAKepler Comms (CA)
ManufacturerKEPLER/UTIAS
MissionOperational Commercial Communications
Bus & MotorCUBESAT 6U, Unknown motor
Mass15 kg wet, 15 kg dry
Launch date (UTC)
2023-11-11 (1 year ago)
Launch vehicle
FALCON 9
Launch site
Air Force Western Test Range (AFWTR)
Object type
Payload
Rocket body
Debris
Shape & HBRBox + 2 Pan, 0.7 m
Radar Cross Section0.109 m², Medium (>0.1 m² and < 1m²)

Expand to show TLE details & history

TLE from 18 hours ago
0 AETHER-1
1 58281U 23174AB  24355.75580339  .00009710  00000-0  38179-3 0  9998
2 58281  97.4409  69.2149 0007505 298.6186  61.4297 15.25846944 62125
Epoch: 2024-12-20T18:08Z
Definitive object data (Epoch: 2024-12-20T18:08:21.412Z)
Latitude-0.00003°
Longitude67.30893°
Altitude488.879 km
Speed7.622 km/s
True Right ascension04h 36m 51s
True Declination0° 00' 00"
Sunlit
Object was in full shadow at TLE epoch
Visualization TLE readout
Latitude82.53281°
Longitude-29.66976°
Altitude506.425 km
Speed7.615 km/s
Apparent Right ascension22h 45m 56s
Apparent Declination25° 18' 14"
Sunlit
Object is in daylight
Visualization observer readout
Local Sidereal Time10:52:41
Azimuth1.68° NNE
Elevation-24.761°
Doppler factor1
Orbital elements
Apogee altitude490.354 km
Perigee altitude480.052 km
Semi-major axis6,863.34 km
Eccentricity0.0007505
Inclination97.4409°
RAAN69.2149°
Arg. of periapsis298.6186°
True anomaly61.50526°
Mean anomaly61.4297°
Eccentric anomaly61.46748°
Mean motion3.81716 °/min
BSTAR0.00038179
Orbital period94.31 mins
Loading maneuver chart data...
Loading historical data...
Loading historical data...
Loading historical data...
Loading historical data...
Loading historical data...
Loading historical data...
Loading historical data...

AETHER-1 Visibility forecast

Observer location: undefined°, undefined

Span
Click to sort rows by Start time (UTC) header in descending order
Start Az.
Max El. time (UTC)
Max El. Az.
Max El.
End time (UTC)
End Az.
6 mins2024-12-21 18:17:58.801Z0.053° NNE2024-12-21 18:20:58.801Z304.039° NW36.628°2024-12-21 18:23:58.801Z213.817° SW
5 mins2024-12-22 04:54:58.801Z138.8° SSE2024-12-22 04:56:58.801Z51.712° ENE37.396°2024-12-22 04:59:58.801Z358.722° N
|